Tracking 28895 objects as of 29-May-2024
HD Live streaming from Space Station
objects crossing your sky now

STARLINK-5583

Track STARLINK-5583 now!
10-day predictions
STARLINK-5583 is classified as:


NORAD ID: 55768
Int'l Code: 2023-028AD
Perigee: 577.3 km
Apogee: 581.1 km
Inclination: 70.0 °
Period: 96.1 minutes
Semi major axis: 6950 km
RCS: Unknown
Launch date: March 3, 2023
Source: United States (US)
Launch site: AIR FORCE WESTERN TEST RANGE (AFWTR)
Your satellite tracking list
Your tracking list is empty




NASA's NSSDC Master Catalog

Two Line Element Set (TLE):
1 55768U 23028AD  24149.86534644 -.00000386  00000-0 -24527-4 0  9999
2 55768  70.0005  62.9797 0002783 258.3415 101.7432 14.98330742 69186
Source of the keplerian elements: AFSPC